TimeICT,TemperatureF,Dew PointF,Humidity,Sea Level PressureIn,VisibilityMPH,Wind Direction,Wind SpeedMPH,Gust SpeedMPH,PrecipitationIn,Events,Conditions,WindDirDegrees,DateUTC
12:00 AM,77.0,73.4,89,29.86,5.0,Calm,Calm,-,N/A,,Mostly Cloudy,0,2012-09-14 17:00:00
12:30 AM,77.0,73.4,89,29.83,5.0,Calm,Calm,-,N/A,,Mostly Cloudy,0,2012-09-14 17:30:00
1:00 AM,80,77,87,29.80,5,West,5.8,,,,Mist,260,2012-09-14 18:00:00
1:00 AM,78.8,73.4,83,29.83,5.0,West,10.4,-,N/A,,Mostly Cloudy,270,2012-09-14 18:00:00
1:30 AM,78.8,73.4,83,29.80,5.0,Variable,1.2,-,N/A,,Mostly Cloudy,0,2012-09-14 18:30:00
2:00 AM,80.6,75.2,84,29.80,5.0,WSW,9.2,-,N/A,,Mostly Cloudy,250,2012-09-14 19:00:00
2:30 AM,80.6,75.2,84,29.77,5.0,West,10.4,-,N/A,,Mostly Cloudy,260,2012-09-14 19:30:00
3:00 AM,80.6,73.4,79,29.77,5.0,West,12.7,-,N/A,,Mostly Cloudy,260,2012-09-14 20:00:00
3:30 AM,80.6,75.2,84,29.77,5.0,West,12.7,-,N/A,,Mostly Cloudy,260,2012-09-14 20:30:00
4:00 AM,80.6,73.4,79,29.77,5.0,West,11.5,-,N/A,,Mostly Cloudy,260,2012-09-14 21:00:00
4:30 AM,80.6,73.4,79,29.77,5.0,WSW,10.4,-,N/A,,Mostly Cloudy,250,2012-09-14 21:30:00
5:00 AM,80.6,73.4,79,29.77,5.0,West,10.4,-,N/A,,Mostly Cloudy,260,2012-09-14 22:00:00
5:30 AM,82.4,73.4,74,29.80,5.0,West,13.8,-,N/A,,Mostly Cloudy,260,2012-09-14 22:30:00
6:00 AM,80.6,73.4,79,29.80,5.0,West,15.0,-,N/A,,Mostly Cloudy,260,2012-09-14 23:00:00
6:30 AM,80.6,73.4,79,29.80,4.3,West,15.0,-,N/A,,Mostly Cloudy,260,2012-09-14 23:30:00
7:00 AM,78,76,92,29.78,4,West,17.3,,,Rain,Light Rain,280,2012-09-15 00:00:00
7:00 AM,77.0,73.4,89,29.83,4.3,WNW,16.1,28.8,N/A,,Mostly Cloudy,290,2012-09-15 00:00:00
7:30 AM,77.0,73.4,89,29.83,4.3,WNW,15.0,-,N/A,Rain,Light Rain,290,2012-09-15 00:30:00
8:00 AM,78.8,73.4,83,29.86,0.6,WNW,17.3,-,N/A,Rain,Heavy Rain,290,2012-09-15 01:00:00
8:30 AM,77.0,73.4,89,29.86,3.7,WNW,15.0,-,N/A,Rain,Light Rain,290,2012-09-15 01:30:00
9:00 AM,77.0,73.4,89,29.86,4.3,WNW,17.3,-,N/A,Rain,Light Rain,290,2012-09-15 02:00:00
9:30 AM,78.8,73.4,83,29.86,4.3,WNW,13.8,-,N/A,,Mostly Cloudy,290,2012-09-15 02:30:00
10:00 AM,80.6,73.4,79,29.86,5.6,WNW,15.0,-,N/A,,Mostly Cloudy,290,2012-09-15 03:00:00
10:30 AM,80.6,73.4,79,29.86,5.6,WNW,12.7,-,N/A,,Mostly Cloudy,290,2012-09-15 03:30:00
11:00 AM,80.6,73.4,79,29.86,5.6,WNW,15.0,-,N/A,,Mostly Cloudy,290,2012-09-15 04:00:00
11:30 AM,82.4,75.2,79,29.86,5.0,West,12.7,-,N/A,,Mostly Cloudy,280,2012-09-15 04:30:00
12:00 PM,82.4,75.2,79,29.86,4.3,West,15.0,-,N/A,,Mostly Cloudy,280,2012-09-15 05:00:00
12:30 PM,82.4,75.2,79,29.83,4.3,West,13.8,-,N/A,,Mostly Cloudy,270,2012-09-15 05:30:00
1:00 PM,81,76,80,29.81,4,West,13.8,,,,Mist,270,2012-09-15 06:00:00
1:00 PM,82.4,75.2,79,29.83,4.3,West,11.5,-,N/A,,Mostly Cloudy,280,2012-09-15 06:00:00
1:30 PM,84.2,73.4,70,29.80,5.0,West,15.0,-,N/A,,Mostly Cloudy,270,2012-09-15 06:30:00
2:00 PM,84.2,73.4,70,29.80,5.0,West,17.3,-,N/A,,Mostly Cloudy,280,2012-09-15 07:00:00
2:30 PM,84.2,71.6,66,29.77,5.0,WNW,13.8,-,N/A,,Mostly Cloudy,290,2012-09-15 07:30:00
3:00 PM,82.4,73.4,74,29.77,5.0,West,15.0,-,N/A,,Mostly Cloudy,280,2012-09-15 08:00:00
3:30 PM,84.2,73.4,70,29.77,5.0,West,11.5,-,N/A,,Mostly Cloudy,280,2012-09-15 08:30:00
4:00 PM,84.2,75.2,74,29.77,5.6,West,12.7,-,N/A,,Mostly Cloudy,270,2012-09-15 09:00:00
4:30 PM,82.4,73.4,74,29.77,5.6,WNW,11.5,-,N/A,,Mostly Cloudy,290,2012-09-15 09:30:00
5:00 PM,82.4,75.2,79,29.77,5.0,WNW,9.2,-,N/A,,Mostly Cloudy,290,2012-09-15 10:00:00
5:30 PM,82.4,75.2,79,29.77,4.3,West,9.2,-,N/A,,Mostly Cloudy,270,2012-09-15 10:30:00
6:00 PM,82.4,75.2,79,29.77,4.3,West,5.8,-,N/A,,Mostly Cloudy,270,2012-09-15 11:00:00
6:30 PM,82.4,75.2,79,29.80,4.3,WNW,8.1,20.7,N/A,,Mostly Cloudy,290,2012-09-15 11:30:00
7:00 PM,82,77,81,29.76,5,West,9.2,,,,Mist,280,2012-09-15 12:00:00
7:00 PM,80.6,75.2,84,29.80,4.3,WNW,9.2,-,N/A,,Mostly Cloudy,290,2012-09-15 12:00:00
7:30 PM,80.6,73.4,79,29.80,4.3,WNW,20.7,32.2,N/A,,Mostly Cloudy,300,2012-09-15 12:30:00
8:00 PM,73.4,69.8,88,29.86,1.2,West,25.3,-,N/A,Rain,Heavy Rain,260,2012-09-15 13:00:00
8:30 PM,75.2,73.4,94,29.86,1.9,West,11.5,-,N/A,Rain,Rain,260,2012-09-15 13:30:00
9:00 PM,77.0,73.4,89,29.86,3.1,West,13.8,-,N/A,Rain,Light Rain,260,2012-09-15 14:00:00
9:30 PM,75.2,71.6,89,29.86,3.1,Variable,3.5,-,N/A,Rain,Light Rain,0,2012-09-15 14:30:00
10:00 PM,75.2,71.6,89,29.86,4.3,Variable,1.2,-,N/A,,Mostly Cloudy,0,2012-09-15 15:00:00
10:30 PM,75.2,73.4,94,29.86,4.3,Variable,2.3,-,N/A,,Mostly Cloudy,0,2012-09-15 15:30:00
11:00 PM,75.2,73.4,94,29.86,4.3,Calm,Calm,-,N/A,,Mostly Cloudy,0,2012-09-15 16:00:00
11:30 PM,75.2,73.4,94,29.86,4.3,Calm,Calm,-,N/A,,Mostly Cloudy,0,2012-09-15 16:30:00